EDT,Max TemperatureF,Mean TemperatureF,Min TemperatureF,Max Dew PointF,MeanDew PointF,Min DewpointF,Max Humidity, Mean Humidity, Min Humidity, Max Sea Level PressureIn, Mean Sea Level PressureIn, Min Sea Level PressureIn, Max VisibilityMiles, Mean VisibilityMiles, Min VisibilityMiles, Max Wind SpeedMPH, Mean Wind SpeedMPH, Max Gust SpeedMPH,PrecipitationIn, CloudCover, Events, WindDirDegrees
2012-10-1,61,57,52,58,54,49,100,88,75,29.87,29.80,29.70,10,7,1,13,6,16,0.25,5,Rain,68
2012-10-2,84,72,60,68,64,58,100,79,58,29.90,29.75,29.70,10,9,2,12,4,18,0.12,6,Rain,172
2012-10-3,75,67,59,60,57,53,93,71,49,30.16,30.06,29.91,10,10,10,9,3,15,0.00,5,,225
2012-10-4,76,66,56,58,56,53,100,73,46,30.26,30.20,30.17,10,9,5,12,3,16,0.00,0,,225
2012-10-5,79,67,54,59,55,53,100,72,43,30.18,30.08,29.93,10,10,8,12,4,17,0.00,1,,204
2012-10-6,65,55,45,56,42,30,93,63,32,30.12,30.04,29.88,10,10,7,22,4,29,0.01,5,Rain,312
2012-10-7,56,47,38,43,38,35,92,71,50,30.20,30.13,30.06,10,10,10,9,3,13,0.00,6,,339
2012-10-8,48,42,36,43,40,37,100,93,86,30.26,30.21,30.18,10,6,0,7,1,10,0.07,6,Fog-Rain,118
2012-10-9,58,47,35,45,40,36,100,79,57,30.22,30.15,30.05,10,5,0,9,2,12,0.00,5,Fog,173
2012-10-10,63,51,39,47,41,33,100,70,39,30.24,30.07,30.00,10,10,7,14,7,24,0.00,4,,240
2012-10-11,62,47,31,38,33,30,96,64,32,30.32,30.25,30.18,10,9,4,9,1,13,0.00,0,,225
2012-10-12,64,51,38,43,39,37,93,68,43,30.37,30.30,30.22,10,10,8,10,3,13,0.00,0,,35
2012-10-13,74,55,36,54,46,35,93,70,46,30.35,30.24,30.12,10,10,6,12,5,17,0.00,1,,164
2012-10-14,77,68,59,59,53,49,72,61,49,30.08,29.96,29.80,10,10,10,22,12,32,T,3,,190
2012-10-15,68,56,43,61,47,41,90,74,57,29.96,29.88,29.78,10,10,2,17,7,25,0.09,6,Rain,244
2012-10-16,66,51,35,45,39,36,100,69,37,30.04,29.97,29.87,10,5,0,8,1,10,0.00,1,Fog,100
2012-10-17,75,59,42,50,44,40,96,68,40,29.91,29.82,29.67,10,10,10,13,5,18,0.00,0,,142
2012-10-18,64,55,46,52,46,42,100,76,51,29.78,29.70,29.61,10,10,5,21,6,31,0.01,4,Rain,176
2012-10-19,66,56,46,46,41,30,100,64,28,29.76,29.70,29.60,10,10,6,23,8,33,0.02,5,Rain,205
2012-10-20,58,51,44,42,41,39,82,69,55,30.01,29.87,29.76,10,10,10,16,6,25,0.00,7,,236
2012-10-21,67,51,35,44,40,34,100,70,40,30.18,30.12,30.03,10,7,2,8,2,14,0.00,1,,137
2012-10-22,79,61,42,52,47,41,96,68,39,30.19,30.14,30.09,10,10,9,10,3,14,0.00,1,,172
2012-10-23,80,66,52,53,50,43,96,63,29,30.13,30.08,30.04,10,10,10,14,3,21,0.00,1,,202
2012-10-24,81,68,54,56,51,47,93,64,35,30.18,30.10,30.06,10,10,10,9,2,15,0.03,4,,160
2012-10-25,81,65,48,52,49,46,93,62,30,30.12,30.05,29.99,10,10,9,10,3,15,0.00,0,,145
2012-10-26,79,66,52,55,50,46,83,63,43,30.08,30.02,29.96,10,10,9,17,4,22,0.00,5,,300
2012-10-27,53,50,47,48,47,44,93,85,77,30.04,30.01,29.96,10,6,2,12,6,17,0.25,8,Rain,349
2012-10-28,47,43,38,45,42,36,100,95,89,30.02,29.96,29.91,10,7,2,16,8,23,0.95,8,Rain,345
2012-10-29,39,37,34,37,35,33,92,89,85,29.95,29.82,29.59,10,7,3,18,12,30,0.72,8,Rain,307
2012-10-30,39,36,32,37,34,30,100,93,85,29.64,29.52,29.46,10,4,1,17,12,31,0.95,8,Rain-Snow,270
2012-10-31,42,41,39,39,37,36,93,86,79,29.84,29.72,29.62,10,8,4,14,9,20,0.19,8,Rain,247